Hourly Weather Barra Mansa

Today, 21 April, Wednesday

Time Temperature Precipitation Wind Pressure Humidity
00:00 +16°C° 0 mm 1 mps 722 mmHg 96%
01:00 +16°C° 0 mm 1 mps 721 mmHg 96%
02:00 +15°C° 0 mm 1 mps 721 mmHg 96%
03:00 +15°C° 0 mm 1 mps 721 mmHg 95%
04:00 +15°C° 0 mm 1 mps 721 mmHg 95%
05:00 +15°C° 0 mm 1 mps 721 mmHg 94%
06:00 +15°C° 0 mm 1 mps 721 mmHg 94%
07:00 +17°C° 0 mm 2 mps 721 mmHg 86%
08:00 +19°C° 0 mm 2 mps 722 mmHg 78%
09:00 +21°C° 0 mm 2 mps 722 mmHg 71%
10:00 +23°C° 0 mm 2 mps 722 mmHg 68%
11:00 +24°C° 0 mm 2 mps 722 mmHg 66%
12:00 +26°C° 0 mm 3 mps 722 mmHg 63%
13:00 +26°C° 0.2 mm 2 mps 721 mmHg 65%
14:00 +26°C° 0.2 mm 2 mps 721 mmHg 66%
15:00 +26°C° 0.2 mm 2 mps 721 mmHg 67%
16:00 +24°C° 0.4 mm 2 mps 721 mmHg 76%
17:00 +21°C° 0.4 mm 2 mps 721 mmHg 85%
18:00 +19°C° 0.4 mm 1 mps 721 mmHg 94%
19:00 +19°C° 0.2 mm 1 mps 722 mmHg 95%
20:00 +19°C° 0.2 mm 1 mps 722 mmHg 96%
21:00 +16°C° 0.2 mm 0 mps 723 mmHg 97%
22:00 +18°C° 0.3 mm 1 mps 722 mmHg 97%
23:00 +18°C° 0.3 mm 1 mps 722 mmHg 97%

Tomorrow, 22 April, Thursday

Time Temperature Precipitation Wind Pressure Humidity
00:00 +18°C° 0.3 mm 1 mps 722 mmHg 97%
01:00 +18°C° 0.1 mm 1 mps 722 mmHg 97%
02:00 +18°C° 0.1 mm 1 mps 722 mmHg 97%
03:00 +16°C° 0.1 mm 0 mps 721 mmHg 97%
04:00 +18°C° 0.2 mm 1 mps 722 mmHg 97%
05:00 +18°C° 0.2 mm 1 mps 722 mmHg 97%
06:00 +18°C° 0.2 mm 1 mps 722 mmHg 97%
07:00 +19°C° 0.1 mm 1 mps 722 mmHg 93%
08:00 +20°C° 0.1 mm 1 mps 723 mmHg 90%
09:00 +21°C° 0.1 mm 1 mps 723 mmHg 87%
10:00 +22°C° 0.5 mm 1 mps 723 mmHg 84%
11:00 +23°C° 0.5 mm 1 mps 723 mmHg 81%
12:00 +24°C° 0.5 mm 1 mps 722 mmHg 78%
13:00 +23°C° 0.7 mm 1 mps 722 mmHg 78%
14:00 +23°C° 0.7 mm 1 mps 722 mmHg 79%
15:00 +23°C° 0.7 mm 1 mps 721 mmHg 80%
16:00 +22°C° 0.4 mm 1 mps 722 mmHg 85%
17:00 +20°C° 0.4 mm 1 mps 722 mmHg 90%
18:00 +19°C° 0.4 mm 1 mps 722 mmHg 94%
19:00 +19°C° 0 mm 1 mps 722 mmHg 95%
20:00 +16°C° 0 mm 0 mps 723 mmHg 96%
21:00 +16°C° 0 mm 0 mps 723 mmHg 97%
22:00 +16°C° 0 mm 0 mps 723 mmHg 97%
23:00 +15°C° 0 mm 0 mps 723 mmHg 97%

Day after tomorrow, 23 April, Friday

Time Temperature Precipitation Wind Pressure Humidity
00:00 +15°C° 0 mm 0 mps 723 mmHg 97%
01:00 +15°C° 0 mm 0 mps 723 mmHg 97%
02:00 +15°C° 0 mm 0 mps 722 mmHg 97%
03:00 +14°C° 0 mm 0 mps 722 mmHg 97%
04:00 +14°C° 0 mm 0 mps 722 mmHg 97%
05:00 +14°C° 0 mm 0 mps 722 mmHg 97%
06:00 +15°C° 0 mm 1 mps 722 mmHg 97%
07:00 +16°C° 0 mm 1 mps 723 mmHg 91%
08:00 +17°C° 0 mm 0 mps 723 mmHg 85%
09:00 +19°C° 0 mm 0 mps 723 mmHg 80%
10:00 +20°C° 0 mm 0 mps 723 mmHg 74%
11:00 +22°C° 0 mm 0 mps 723 mmHg 67%
12:00 +24°C° 0 mm 0 mps 722 mmHg 61%
13:00 +26°C° 0 mm 1 mps 722 mmHg 62%
14:00 +26°C° 0 mm 1 mps 721 mmHg 62%
15:00 +26°C° 0 mm 2 mps 720 mmHg 63%
16:00 +24°C° 0 mm 2 mps 721 mmHg 72%
17:00 +21°C° 0 mm 2 mps 721 mmHg 81%
18:00 +19°C° 0 mm 2 mps 721 mmHg 90%
19:00 +19°C° 0 mm 1 mps 721 mmHg 92%
20:00 +19°C° 0 mm 1 mps 722 mmHg 94%
21:00 +16°C° 0 mm 0 mps 722 mmHg 96%
22:00 +16°C° 0 mm 0 mps 722 mmHg 96%
23:00 +16°C° 0 mm 0 mps 722 mmHg 95%

24 April, Saturday

Time Temperature Precipitation Wind Pressure Humidity
00:00 +16°C° 0 mm 0 mps 722 mmHg 95%
01:00 +16°C° 0 mm 0 mps 722 mmHg 94%
02:00 +16°C° 0 mm 0 mps 721 mmHg 94%
03:00 +16°C° 0 mm 0 mps 721 mmHg 94%
04:00 +16°C° 0 mm 0 mps 721 mmHg 95%
05:00 +16°C° 0 mm 0 mps 721 mmHg 96%
06:00 +15°C° 0 mm 0 mps 721 mmHg 97%
07:00 +17°C° 0 mm 0 mps 722 mmHg 90%
08:00 +19°C° 0 mm 0 mps 722 mmHg 83%
09:00 +21°C° 0 mm 0 mps 722 mmHg 77%
10:00 +22°C° 0 mm 0 mps 722 mmHg 71%
11:00 +26°C° 0 mm 1 mps 721 mmHg 66%
12:00 +27°C° 0 mm 1 mps 721 mmHg 60%
13:00 +28°C° 0 mm 1 mps 720 mmHg 59%
14:00 +28°C° 0 mm 1 mps 720 mmHg 58%
15:00 +28°C° 0 mm 1 mps 719 mmHg 57%
16:00 +26°C° 0 mm 1 mps 719 mmHg 68%
17:00 +24°C° 0 mm 1 mps 719 mmHg 79%
18:00 +20°C° 0 mm 2 mps 720 mmHg 91%
19:00 +21°C° 0 mm 1 mps 720 mmHg 93%
20:00 +20°C° 0 mm 1 mps 720 mmHg 95%
21:00 +17°C° 0 mm 0 mps 721 mmHg 98%
22:00 +17°C° 0 mm 0 mps 721 mmHg 97%
23:00 +17°C° 0 mm 0 mps 721 mmHg 97%

25 April, Sunday

Time Temperature Precipitation Wind Pressure Humidity
00:00 +17°C° 0 mm 0 mps 721 mmHg 97%
01:00 +17°C° 0 mm 0 mps 720 mmHg 97%
02:00 +17°C° 0 mm 0 mps 720 mmHg 96%
03:00 +17°C° 0 mm 0 mps 720 mmHg 96%
04:00 +17°C° 0 mm 0 mps 720 mmHg 95%
05:00 +17°C° 0 mm 0 mps 720 mmHg 94%
06:00 +19°C° 0 mm 1 mps 720 mmHg 94%
07:00 +19°C° 0 mm 0 mps 720 mmHg 87%
08:00 +20°C° 0 mm 0 mps 721 mmHg 81%
09:00 +22°C° 0 mm 0 mps 721 mmHg 75%
10:00 +24°C° 0 mm 0 mps 720 mmHg 68%
11:00 +27°C° 0 mm 1 mps 720 mmHg 62%
12:00 +29°C° 0 mm 1 mps 720 mmHg 55%
13:00 +29°C° 0 mm 1 mps 719 mmHg 55%
14:00 +30°C° 0 mm 1 mps 719 mmHg 54%
15:00 +30°C° 0 mm 1 mps 718 mmHg 53%
16:00 +28°C° 0.1 mm 1 mps 718 mmHg 64%
17:00 +25°C° 0.1 mm 1 mps 719 mmHg 75%
18:00 +23°C° 0.1 mm 1 mps 719 mmHg 87%
19:00 +22°C° 0.1 mm 1 mps 719 mmHg 89%
20:00 +21°C° 0.1 mm 1 mps 719 mmHg 92%
21:00 +20°C° 0.1 mm 1 mps 720 mmHg 95%
22:00 +18°C° 0.3 mm 0 mps 720 mmHg 95%
23:00 +18°C° 0.3 mm 0 mps 720 mmHg 95%

26 April, Monday

Time Temperature Precipitation Wind Pressure Humidity
00:00 +18°C° 0.3 mm 0 mps 719 mmHg 96%
01:00 +18°C° 0.1 mm 0 mps 719 mmHg 96%
02:00 +18°C° 0.1 mm 0 mps 719 mmHg 96%
03:00 +18°C° 0.1 mm 0 mps 719 mmHg 96%
04:00 +18°C° 0 mm 0 mps 719 mmHg 96%
05:00 +18°C° 0 mm 0 mps 719 mmHg 96%
06:00 +17°C° 0 mm 0 mps 719 mmHg 96%
07:00 +19°C° 0 mm 0 mps 720 mmHg 92%
08:00 +20°C° 0 mm 0 mps 720 mmHg 88%
09:00 +22°C° 0 mm 0 mps 721 mmHg 84%
10:00 +23°C° 0.1 mm 0 mps 720 mmHg 77%
11:00 +25°C° 0.1 mm 0 mps 720 mmHg 70%
12:00 +28°C° 0.1 mm 1 mps 720 mmHg 62%
13:00 +27°C° 0.5 mm 1 mps 720 mmHg 69%
14:00 +27°C° 0.5 mm 2 mps 719 mmHg 76%
15:00 +26°C° 0.5 mm 3 mps 719 mmHg 82%
16:00 +24°C° 1.2 mm 2 mps 720 mmHg 87%
17:00 +23°C° 1.2 mm 2 mps 720 mmHg 91%
18:00 +20°C° 1.2 mm 2 mps 721 mmHg 96%
19:00 +21°C° 0.4 mm 1 mps 721 mmHg 97%
20:00 +21°C° 0.4 mm 1 mps 722 mmHg 97%
21:00 +18°C° 0.4 mm 0 mps 723 mmHg 98%
22:00 +18°C° 0.1 mm 0 mps 723 mmHg 98%
23:00 +18°C° 0.1 mm 0 mps 723 mmHg 98%
Show more